ECMWFNIL_250_spd_000.txt.gz
Wind_Speed
50 55 54 55 56 55 55 54 54 54 54 54 54 53 52 50 49 48 46 44 42 41 41 40 39 38 37 37 36 35 35 36 37 38 38 39 40 41 42 43 43 44
53 58 57 58 57 56 56 56 55 55 55 55 55 55 54 53 51 50 48 45 43 42 41 40 39 38 37 37 37 36 37 38 39 40 40 39 39 41 43 45 46 47
54 58 58 60 59 58 58 57 57 57 56 56 56 56 56 55 54 52 50 48 46 44 42 41 39 38 38 38 38 39 39 41 42 42 43 41 39 42 45 46 49 50
55 56 58 62 61 60 60 58 58 58 58 59 58 58 58 57 55 53 51 50 48 47 45 43 41 40 40 40 40 41 42 44 45 46 46 43 41 44 47 48 50 52
56 55 58 66 65 62 60 59 59 60 60 61 61 60 59 58 56 54 52 51 50 49 47 45 44 42 42 43 42 44 45 46 49 50 49 46 45 47 50 51 51 52
56 54 60 69 68 64 62 61 61 62 62 63 63 63 61 59 57 55 53 52 51 50 48 47 45 44 45 45 45 46 47 49 52 54 52 50 48 49 52 53 53 52
55 55 63 71 70 66 64 64 64 64 65 66 66 65 63 61 58 56 55 53 52 51 49 48 46 46 47 47 47 48 49 50 54 56 55 53 52 53 55 55 54 53
58 60 67 72 71 68 67 67 67 67 68 69 69 67 65 63 59 57 56 54 53 52 50 49 48 48 48 48 49 50 51 52 55 57 58 57 56 58 58 57 56 53
64 63 68 72 71 70 69 69 70 71 71 71 70 69 67 65 62 59 57 55 54 53 52 51 51 50 49 49 50 51 52 54 55 58 60 59 58 59 59 59 57 55
67 64 69 75 73 72 71 71 73 74 74 73 72 70 68 66 64 61 59 57 56 55 54 53 52 52 52 51 51 52 53 54 56 59 61 59 59 60 60 59 58 58
68 66 71 77 75 74 74 74 75 77 77 76 74 73 70 66 64 62 60 59 57 56 55 53 53 53 54 54 54 54 55 55 56 59 62 61 61 62 61 60 60 60
72 69 74 79 76 76 77 76 77 79 80 79 78 76 72 68 65 63 61 59 59 57 56 54 53 52 53 55 56 56 57 59 59 61 64 65 64 64 63 62 61 61
74 72 77 79 76 78 78 77 79 81 81 82 81 78 73 69 67 64 61 59 58 57 56 54 53 52 53 55 56 56 58 61 62 62 65 67 67 67 66 63 61 60
75 76 79 78 77 79 79 79 81 82 83 84 83 80 75 72 69 65 62 58 55 55 54 53 54 54 53 55 56 56 58 61 64 64 65 67 69 68 66 63 60 58
81 80 80 79 79 80 80 81 83 84 85 85 84 82 77 74 71 66 62 57 55 54 53 54 56 57 55 54 56 58 60 63 66 67 67 68 69 67 65 61 58 56
85 82 81 81 82 82 82 83 85 85 86 86 85 84 80 76 72 67 62 58 56 56 55 56 58 58 56 56 57 59 62 65 69 70 71 71 70 69 66 62 58 54
85 82 82 83 84 83 84 85 86 87 88 87 86 85 81 77 72 68 63 58 56 57 58 59 59 58 57 58 59 61 65 68 71 73 74 74 73 71 68 64 59 54
85 83 83 83 84 85 85 86 87 89 90 88 87 85 81 76 73 70 64 58 57 59 59 59 58 59 59 60 62 64 67 70 73 75 76 75 73 70 68 64 58 54
85 85 84 83 85 85 86 87 89 90 90 88 86 84 80 77 73 69 64 61 61 62 59 57 58 60 62 64 66 68 69 71 74 77 78 75 72 69 65 62 56 52
87 86 85 84 85 86 86 88 90 91 90 88 86 84 80 77 72 67 65 65 64 62 59 57 60 62 63 66 70 72 74 75 75 77 78 76 71 65 61 58 53 49
87 86 87 86 86 86 87 89 91 91 89 87 86 84 80 77 72 67 65 63 61 60 60 61 63 64 65 69 72 74 75 76 76 76 76 73 68 61 56 53 50 46
86 87 87 87 87 87 88 90 90 89 88 88 86 83 79 75 71 67 63 62 61 61 63 65 66 67 69 72 74 75 76 77 76 74 72 68 63 57 51 49 47 44
85 85 86 88 89 89 90 91 89 88 89 89 86 82 78 74 71 68 65 65 64 64 65 68 69 70 72 75 76 78 78 77 75 71 68 64 59 53 47 44 42 41
84 83 86 91 92 93 94 93 90 89 88 87 85 80 76 73 71 70 69 69 69 68 69 71 72 74 76 78 79 79 76 74 73 70 65 60 54 48 42 40 38 37
84 84 89 94 96 97 97 95 93 91 89 86 83 79 76 74 73 73 73 74 74 73 73 75 77 78 79 81 81 78 74 74 74 70 63 56 50 44 38 35 34 33
85 88 93 96 97 98 97 95 95 93 90 87 82 78 76 75 75 76 76 76 77 76 76 78 80 80 82 83 82 79 78 76 74 69 61 54 48 42 36 32 30 31

ECMWFNIL_250_spd_003.txt.gz
Wind_Speed
48 52 53 51 50 51 52 55 58 58 60 61 59 59 60 60 62 64 64 64 62 60 57 54 52 49 46 44 42 40 39 40 40 41 42 43 45 45 46 47 46 45
50 53 54 54 56 55 52 55 59 60 63 64 62 63 63 63 65 66 67 67 65 63 60 57 54 52 49 46 43 41 39 40 40 41 42 43 44 46 47 48 48 47
52 55 56 58 60 56 51 54 60 63 67 67 65 66 66 66 66 68 70 71 69 66 63 60 57 55 52 49 45 42 40 40 40 41 42 43 44 46 48 49 50 49
54 56 58 60 61 55 51 54 59 64 69 70 69 69 69 67 68 71 73 73 71 69 66 62 59 57 54 52 48 44 42 40 40 41 42 43 45 46 48 50 51 51
56 58 60 62 63 59 55 57 60 64 70 73 72 71 71 69 71 75 75 74 74 72 69 65 61 58 55 53 50 47 44 41 40 41 43 44 44 46 48 51 52 52
57 59 62 65 66 64 61 60 59 62 69 74 74 72 71 71 73 77 77 76 75 73 70 66 62 59 56 54 52 49 46 43 41 41 43 43 44 45 48 50 52 54
57 59 62 67 68 67 66 62 58 62 71 76 75 73 72 72 75 77 77 76 76 74 71 67 64 61 57 55 53 50 47 44 42 42 43 43 42 44 47 49 51 53
58 59 63 67 68 66 65 61 59 65 74 78 78 75 72 73 77 78 78 78 77 75 73 69 65 61 59 57 54 51 48 45 43 43 43 42 42 43 46 48 50 52
60 61 64 67 67 64 60 59 63 71 77 80 79 73 71 76 78 79 79 79 77 76 75 71 66 63 61 59 56 52 48 45 43 42 43 43 42 42 45 48 49 50
63 64 66 67 65 62 59 62 69 76 79 81 78 71 71 76 78 79 79 78 77 77 76 73 69 65 61 58 55 51 48 46 43 42 43 44 44 43 45 46 48 49
65 66 68 68 64 61 63 68 75 79 80 79 75 70 71 75 79 81 80 79 78 77 76 74 70 66 62 58 54 50 48 47 45 44 45 47 47 46 45 46 48 51
67 69 70 68 63 64 70 76 80 80 79 77 74 73 74 77 80 83 81 80 79 77 76 74 70 67 62 58 54 50 49 51 51 50 49 48 48 48 48 49 50 52
71 71 69 68 68 70 77 82 83 80 78 76 75 77 78 78 81 84 83 81 79 77 76 74 71 67 62 58 55 52 52 54 55 54 52 50 49 49 50 51 52 53
73 71 69 72 73 76 82 85 82 79 78 76 75 78 79 80 84 87 85 83 81 78 76 73 71 67 62 58 55 53 54 54 54 54 53 52 52 52 53 54 55 56
72 69 71 74 76 81 86 86 80 77 79 78 76 78 80 82 87 90 87 85 82 79 76 73 70 67 63 59 56 55 55 55 55 54 53 53 53 55 57 57 58 60
69 70 73 74 78 85 87 84 79 79 81 80 77 79 81 85 90 91 88 85 82 80 77 73 70 67 64 60 58 57 56 56 56 56 55 54 54 55 58 60 62 64
72 74 75 74 81 87 86 82 79 79 81 80 78 78 82 88 92 92 89 85 83 82 78 73 69 67 64 62 60 59 59 59 58 58 58 58 58 58 59 61 63 65
77 76 74 76 84 88 86 83 79 78 81 81 78 79 84 91 95 94 90 86 84 83 79 74 70 67 66 64 62 61 63 63 62 61 61 62 62 63 62 62 63 64
78 74 75 81 86 87 86 85 80 79 81 82 80 81 86 93 97 96 93 89 87 85 81 77 72 69 67 66 64 63 65 66 66 66 66 66 66 66 65 64 64 64
76 75 79 84 86 86 86 85 82 82 85 85 83 84 89 94 97 96 94 91 89 87 83 79 74 70 69 67 66 66 68 69 69 70 70 70 70 69 68 67 66 65
73 77 83 85 85 85 85 85 84 85 88 88 86 88 91 94 97 97 95 93 92 88 84 81 77 73 71 71 70 70 72 72 72 73 74 73 72 70 69 67 65 63
74 81 85 85 85 85 87 88 88 89 90 90 89 91 94 96 98 99 97 96 94 90 86 83 79 75 73 73 73 74 76 76 75 76 76 75 72 69 67 65 63 60
77 84 86 85 86 87 89 90 90 91 92 91 92 95 97 98 101 101 99 98 95 90 87 83 80 77 76 75 75 77 78 78 78 78 78 75 72 69 66 64 61 58
80 85 85 85 87 89 90 91 91 93 94 95 96 97 98 100 102 100 99 98 95 91 87 83 81 80 79 78 78 79 80 80 80 79 77 74 71 68 65 62 59 55
82 86 86 87 88 89 91 92 93 95 96 98 99 98 99 101 101 99 97 97 94 90 87 85 83 82 82 81 80 81 82 82 80 78 75 72 70 67 64 60 56 52
86 88 88 89 89 90 92 93 95 96 97 97 98 99 102 103 101 98 96 94 91 88 86 85 83 83 84 83 82 83 83 82 80 76 73 70 67 64 62 58 53 49

ECMWFNIL_250_spd_006.txt.gz
Wind_Speed
43 43 43 44 45 46 48 50 53 55 56 56 51 47 49 56 64 69 68 63 56 55 58 62 68 72 74 73 72 70 68 66 61 55 50 47 45 44 45 46 48 51
45 46 46 46 46 47 50 52 54 56 58 58 53 48 51 59 66 70 68 62 58 57 58 62 68 73 75 75 74 72 71 70 66 60 54 49 46 45 44 45 46 49
48 49 48 49 49 49 51 53 56 58 59 59 54 51 54 60 67 71 68 62 59 59 60 63 69 73 76 77 76 74 72 72 70 65 58 52 48 45 44 44 44 46
49 51 51 51 52 52 53 55 57 59 61 60 56 55 57 62 68 71 68 64 62 62 63 64 69 73 75 77 77 75 74 73 72 68 62 55 50 45 42 42 42 44
50 52 52 53 54 55 55 57 59 60 61 60 57 56 60 64 69 72 71 67 65 65 64 65 69 74 76 77 78 77 74 74 73 70 65 59 52 46 42 40 40 42
51 53 54 54 56 58 58 59 61 61 62 61 57 58 63 65 69 73 73 70 67 65 65 66 69 74 76 77 78 77 75 74 74 72 67 61 54 48 43 40 40 40
53 54 55 56 57 59 59 60 62 63 62 61 59 61 65 65 68 73 73 72 69 66 67 69 71 75 77 77 77 77 76 75 75 73 68 62 55 49 45 43 42 41
55 56 56 58 59 60 60 61 63 63 62 61 61 65 66 64 68 73 74 73 71 69 70 73 76 78 79 78 77 77 77 77 77 74 68 62 55 50 46 44 45 44
57 57 58 59 60 61 61 62 63 64 63 63 64 67 66 64 69 74 74 73 74 73 74 76 78 78 78 78 78 79 79 79 79 76 70 62 55 50 47 45 45 46
58 59 59 61 62 62 62 63 64 65 65 66 68 68 66 65 71 75 74 75 75 75 76 77 78 79 79 80 80 80 82 82 83 79 72 63 56 51 48 46 46 46
60 62 62 62 63 63 63 64 66 68 69 69 70 69 66 66 72 75 75 75 76 76 77 78 79 80 82 82 81 82 84 85 85 82 74 66 58 53 50 47 46 47
63 64 63 63 64 64 65 67 68 69 70 69 70 68 65 67 73 75 75 76 77 77 77 79 81 82 83 82 82 84 86 88 87 84 77 68 60 55 51 49 48 47
63 62 63 65 66 66 67 68 69 70 70 69 70 67 64 67 73 76 77 79 80 79 79 81 83 83 83 83 84 86 88 90 89 85 78 69 61 56 53 52 50 49
55 58 66 69 69 68 67 67 69 69 68 68 67 64 63 68 74 77 80 82 81 80 80 83 85 84 83 83 85 87 90 91 90 87 80 70 62 58 55 54 53 53
51 62 73 71 68 65 63 65 67 66 65 65 64 63 65 70 75 79 83 84 82 81 83 86 86 84 84 85 87 90 91 92 91 87 79 71 64 60 58 57 57 57
58 71 74 69 65 62 62 66 67 66 66 66 66 67 69 72 77 82 85 86 84 84 86 88 87 85 86 87 89 91 92 92 91 85 79 72 66 62 61 60 59 60
70 77 73 66 64 64 66 69 68 67 68 68 68 70 72 75 80 85 87 88 86 86 88 89 88 87 88 90 91 92 92 92 90 85 78 73 68 65 63 61 61 62
75 76 70 66 67 67 68 68 67 66 67 68 70 72 75 79 85 87 88 88 87 87 89 90 89 90 91 92 93 93 93 91 89 83 77 73 70 67 65 64 64 64
72 70 65 64 65 65 65 66 66 65 67 70 72 74 79 84 87 88 88 88 88 88 90 91 91 93 94 94 94 95 93 91 86 80 75 73 72 70 69 68 67 66
64 61 59 59 61 63 65 65 66 67 69 71 73 78 84 88 89 88 88 89 89 89 91 93 94 95 95 94 95 96 93 89 83 77 75 76 75 73 72 71 68 66
52 52 54 59 63 65 66 67 69 71 72 74 77 84 89 91 90 88 89 90 91 92 95 96 97 97 97 96 97 96 92 86 80 77 77 79 78 77 75 73 69 66
48 50 56 64 67 67 69 71 73 74 76 80 85 90 92 92 90 89 90 92 94 96 98 100 100 99 99 99 98 96 90 84 79 78 80 82 81 79 76 73 69 66
51 60 69 72 67 66 70 74 76 79 83 88 91 93 93 91 90 91 92 93 95 97 99 100 100 100 100 100 99 96 90 84 80 80 82 84 83 80 77 73 69 66
69 77 81 75 69 70 75 78 81 86 90 92 93 93 92 90 91 93 95 96 97 98 99 99 99 100 101 100 99 95 89 84 81 82 85 86 84 80 76 71 68 66
79 82 82 78 78 82 84 86 88 91 93 93 93 91 90 91 93 95 97 98 99 99 99 100 101 102 101 100 98 93 88 83 82 84 87 87 83 79 75 71 68 65
81 84 84 83 85 88 91 92 93 93 94 94 91 90 91 93 94 96 97 98 99 100 101 102 103 103 102 100 96 91 86 84 84 86 88 86 82 78 75 71 68 65

ECMWFNIL_250_spd_009.txt.gz
Wind_Speed
44 45 46 47 46 46 46 47 48 48 49 50 51 51 52 53 53 52 52 52 53 54 56 55 54 56 58 59 60 61 63 66 68 69 69 68 68 69 71 70 68 65
45 46 48 49 49 50 49 49 49 50 51 51 52 52 53 55 55 55 54 54 54 55 57 56 55 56 58 60 61 62 65 68 69 70 71 71 71 72 73 72 70 67
46 48 49 51 52 53 52 52 51 52 52 52 52 52 54 56 57 57 56 56 56 57 57 57 57 57 59 61 63 65 68 71 72 71 72 73 74 74 75 74 73 70
47 49 51 53 55 55 55 54 53 54 54 52 52 52 54 57 58 59 58 58 58 59 58 59 59 58 59 63 66 68 71 74 74 73 74 75 76 77 77 77 76 74
49 51 53 55 57 57 58 57 56 56 54 53 52 52 54 57 60 61 60 59 60 60 60 60 60 60 61 65 68 70 73 76 76 75 75 77 78 79 79 79 78 77
51 52 54 57 58 59 60 60 58 55 54 55 53 51 53 58 62 62 60 60 61 60 60 60 61 62 65 68 70 71 75 78 77 76 77 79 80 81 82 81 81 80
52 53 56 58 60 62 62 59 55 53 55 57 52 48 52 60 63 61 57 58 59 59 59 60 61 64 68 69 70 73 77 78 77 78 79 80 82 83 83 83 82 82
54 56 59 61 61 61 57 53 53 55 58 57 49 46 53 62 64 59 54 56 59 58 60 61 63 66 68 69 72 75 78 79 78 79 80 81 83 84 84 84 84 84
56 59 60 58 55 51 47 51 56 57 59 56 50 50 56 63 65 59 55 58 61 60 61 63 65 68 70 71 73 76 79 80 80 80 81 82 84 86 86 87 86 85
58 58 53 50 49 45 45 52 56 55 57 56 53 54 58 63 67 63 60 62 64 62 63 65 67 69 71 73 74 77 80 81 81 81 82 84 86 87 88 89 88 86
58 52 46 48 49 47 49 54 55 55 57 56 55 58 60 65 70 67 64 65 65 64 66 68 69 71 73 73 76 80 83 83 83 83 84 85 87 88 90 90 89 87
53 45 44 47 47 48 54 59 59 60 61 61 61 62 64 69 74 69 65 66 66 66 69 70 70 71 72 74 79 83 85 85 85 85 86 87 88 90 92 92 91 89
43 41 47 48 48 51 56 60 62 63 64 64 65 66 69 76 79 72 66 66 67 69 70 71 71 72 73 77 83 86 86 86 87 87 87 88 89 91 94 94 93 91
35 44 53 51 51 54 56 59 61 60 63 66 69 74 79 83 81 73 67 68 70 70 72 73 73 73 75 81 87 89 88 88 88 88 89 90 91 94 96 96 94 93
39 49 51 47 49 53 57 61 63 64 72 76 76 80 85 85 79 72 69 70 72 73 75 75 75 75 78 85 89 90 90 91 91 90 90 90 92 95 97 97 96 95
40 45 45 46 53 56 59 63 66 72 80 81 77 78 80 80 75 70 68 70 74 76 77 75 75 78 83 87 90 91 93 94 93 92 91 92 94 96 97 98 98 97
36 40 44 53 61 63 63 65 70 76 80 78 76 76 75 72 70 67 67 72 77 77 75 75 78 83 88 90 91 94 96 96 94 93 93 93 95 96 97 98 99 98
38 42 49 57 65 67 67 68 71 75 76 74 71 71 69 67 66 67 70 77 82 79 79 83 86 90 93 93 95 98 98 96 95 94 94 95 96 97 97 98 99 97
42 51 56 60 67 69 68 69 71 72 72 71 70 68 66 66 68 70 75 83 88 87 87 90 91 94 95 95 98 100 99 97 95 95 95 96 96 97 98 98 98 95
47 55 58 63 67 69 69 70 71 71 70 70 69 69 69 72 75 76 82 89 92 91 89 90 92 94 96 97 100 101 99 97 95 94 94 95 96 97 98 99 97 92
52 55 59 64 68 70 71 71 71 73 75 74 74 75 76 78 80 83 88 91 90 87 87 90 94 96 97 99 102 102 100 97 95 94 94 95 97 98 99 98 96 90
56 59 65 69 72 74 75 75 76 80 82 82 80 79 79 81 84 87 90 90 88 89 92 95 97 98 99 102 103 102 99 95 93 93 94 96 98 100 100 98 94 88
57 59 63 69 73 75 76 78 82 86 87 87 84 83 84 85 88 90 92 93 96 99 99 98 98 99 100 102 102 98 95 93 92 93 94 96 99 100 100 98 93 87
58 55 57 64 69 73 77 80 84 87 89 89 88 88 89 90 92 94 95 97 99 100 99 98 98 99 100 99 97 93 91 91 92 93 95 97 98 100 100 97 91 87
57 52 55 62 68 73 77 79 82 85 86 88 90 91 91 91 93 94 94 95 96 96 96 95 95 96 96 93 90 89 89 91 92 94 95 96 99 100 99 94 89 87
58 56 61 69 74 77 78 78 79 82 85 88 89 90 89 90 92 94 93 93 93 93 93 93 93 92 90 88 87 87 90 91 92 93 94 97 100 100 97 92 88 88

ECMWFNIL_250_spd_015.txt.gz
Wind_Speed
40 40 41 41 41 41 41 42 42 41 41 42 43 44 46 46 43 38 36 37 37 37 37 37 39 41 41 39 39 40 43 46 48 52 55 57 58 58 58 57 56 55
42 43 43 42 42 41 41 42 42 42 41 42 44 45 47 46 40 37 37 37 38 39 38 38 38 39 39 38 37 40 44 47 50 53 56 58 60 60 59 57 55 55
44 44 44 43 43 42 41 42 43 43 43 44 45 47 48 45 39 36 38 39 39 39 39 38 38 40 40 39 39 42 47 50 53 55 57 60 60 60 59 57 56 57
46 45 45 44 44 43 43 44 45 46 47 47 48 48 46 43 39 38 40 40 38 39 39 39 41 44 46 45 47 50 52 54 57 58 59 61 62 61 60 59 59 60
47 46 46 45 45 44 44 46 49 50 50 49 50 49 46 44 43 42 41 40 38 39 39 40 44 48 49 50 52 54 55 58 60 61 62 64 65 63 62 61 61 62
47 47 46 46 46 46 47 49 51 51 50 51 51 49 48 49 49 46 43 41 39 39 40 43 49 52 51 52 53 55 57 60 62 63 65 66 65 63 62 62 63 63
48 47 47 47 47 49 50 52 52 52 51 51 51 49 48 50 50 48 45 43 40 40 42 46 51 52 53 54 54 56 58 61 64 66 66 66 64 63 63 64 65 65
48 48 49 49 49 51 52 53 53 52 52 52 52 49 48 49 51 49 45 42 41 42 44 47 50 52 53 54 55 57 60 63 66 66 66 66 65 65 66 67 67 68
48 50 51 52 52 53 54 55 54 54 53 52 52 50 48 50 52 48 43 41 42 43 43 46 51 53 54 55 56 58 62 65 67 67 67 67 67 68 69 71 72 74
48 51 54 55 55 55 56 56 55 55 54 52 50 48 47 50 50 46 42 41 41 42 43 47 52 54 55 57 58 61 65 67 68 68 68 68 69 71 72 73 75 77
50 53 56 57 57 57 57 57 57 56 54 52 48 44 45 48 46 42 40 40 41 42 45 49 53 54 56 59 62 65 67 68 68 68 68 70 71 72 74 76 78 80
54 54 56 57 58 59 57 57 56 56 54 50 46 43 44 44 44 43 44 44 43 44 46 49 53 55 59 63 66 68 68 68 68 69 70 72 73 76 78 80 82 84
56 56 56 57 58 58 57 56 55 54 51 48 45 46 46 47 51 51 49 48 45 44 46 51 56 60 63 66 68 69 70 71 72 73 75 76 78 81 83 85 87 88
57 56 55 55 54 55 55 54 52 51 50 48 46 47 50 57 61 56 51 49 46 46 52 59 63 67 69 71 72 73 74 75 76 78 80 82 84 85 87 89 90 91
57 55 52 50 49 50 52 53 50 50 51 50 46 45 48 53 55 51 50 50 51 55 62 66 69 72 74 75 77 78 79 80 81 83 85 86 87 89 90 91 91 91
56 53 50 46 42 42 49 52 50 48 49 49 45 40 39 41 43 46 51 55 59 65 70 71 74 76 78 79 80 81 82 83 85 87 88 89 90 91 92 92 92 93
56 54 51 47 40 38 44 48 48 48 49 50 48 39 35 40 46 52 58 64 68 71 73 75 77 78 80 82 83 84 85 86 88 89 90 91 92 92 93 94 94 94
56 55 53 51 46 42 43 42 44 48 49 50 49 42 39 45 52 58 63 67 70 72 75 78 80 81 83 84 85 86 86 87 89 91 92 93 94 94 95 95 94 92
57 57 56 55 53 50 48 45 46 49 47 47 49 48 47 51 55 59 64 68 71 74 77 80 82 83 84 85 86 86 87 89 91 92 93 95 96 96 95 94 91 88
57 59 59 59 58 57 55 52 51 51 48 46 50 53 52 53 58 63 68 72 75 78 80 82 82 83 84 86 87 87 89 91 92 93 94 95 96 95 93 90 87 85
59 60 61 61 61 61 61 58 56 55 51 48 52 56 55 57 63 68 73 76 78 80 82 83 85 86 87 88 89 90 91 92 91 91 91 91 92 92 88 84 83 85
61 63 63 64 64 65 65 63 60 60 57 54 56 58 59 61 66 70 75 78 80 82 84 86 87 88 89 89 90 89 89 89 89 88 87 88 89 86 81 80 83 88
64 65 65 66 67 67 67 65 63 62 60 58 57 59 60 63 66 70 73 76 78 80 82 84 86 88 89 89 89 89 89 87 87 87 85 82 79 78 80 85 89 92
67 68 68 68 68 69 68 67 65 63 60 58 58 58 59 62 65 68 71 73 75 77 80 82 85 87 89 89 89 89 87 85 84 84 80 74 74 79 86 89 91 93
71 71 70 69 69 71 70 68 66 62 58 56 55 56 58 60 63 66 69 72 75 78 81 82 84 87 88 86 84 83 81 78 79 79 78 78 82 86 89 90 91 92
74 73 73 72 71 72 71 68 66 62 56 51 52 55 57 59 62 65 68 72 75 77 79 80 82 83 80 74 73 75 76 76 78 80 82 85 88 89 90 92 92 91

ECMWFNIL_250_spd_021.txt.gz
Wind_Speed
31 32 32 32 32 32 33 33 34 35 36 37 38 38 40 42 43 43 42 43 44 43 39 37 37 36 35 33 32 34 37 39 39 40 41 42 42 45 46 46 45 45
33 33 34 34 33 33 34 35 36 37 38 39 39 41 43 43 42 43 44 45 45 42 39 37 37 36 35 35 35 36 39 41 42 42 42 42 43 44 45 46 46 46
34 35 35 35 35 35 35 37 38 39 40 40 41 43 44 43 43 46 47 45 44 41 39 38 37 35 34 34 35 38 40 42 43 43 43 44 45 44 44 45 46 47
35 35 36 36 36 36 37 38 40 41 41 42 43 44 44 44 46 48 47 43 41 39 38 38 37 36 35 36 36 38 41 43 45 45 45 46 47 46 45 45 47 47
36 36 37 37 37 37 38 40 41 42 43 43 44 45 45 45 47 47 45 41 39 39 40 40 38 37 38 39 40 41 42 45 47 47 46 46 47 47 47 47 46 46
37 37 38 38 38 38 40 42 43 43 44 45 46 46 45 47 48 48 46 43 41 42 42 40 38 39 40 41 43 44 43 45 48 47 46 47 47 47 46 46 46 47
39 39 39 40 40 40 42 43 44 44 45 47 47 47 48 50 50 49 48 46 44 44 42 39 39 40 41 42 43 43 43 45 48 48 46 46 46 46 47 48 51 53
40 41 41 41 42 42 44 45 46 46 47 47 49 50 51 51 50 50 50 47 44 43 42 41 42 42 41 41 41 42 43 46 48 49 48 46 46 48 50 53 56 58
42 43 43 43 44 45 46 46 47 47 48 49 51 52 52 52 51 51 49 45 43 43 43 45 46 44 42 41 42 44 45 47 49 49 48 46 48 51 54 57 59 60
44 44 45 45 46 47 48 48 47 48 49 50 52 53 53 52 51 51 49 47 47 46 46 47 46 45 44 45 47 49 48 47 47 46 46 48 52 56 58 60 61 62
45 46 47 47 48 49 50 49 49 50 51 51 52 55 55 53 52 53 51 50 49 47 46 46 46 46 48 50 51 51 50 50 50 51 52 55 57 59 60 61 62 64
47 47 49 50 50 50 51 52 51 52 53 52 52 55 56 55 54 54 53 51 50 48 47 47 48 50 51 52 52 52 54 56 57 58 59 59 60 61 62 63 65 68
49 50 51 52 51 51 52 53 52 52 54 55 54 54 56 56 54 54 53 52 52 51 50 50 51 53 53 54 54 55 57 59 59 59 59 60 61 62 63 65 68 71
51 52 53 54 53 53 53 53 53 53 55 57 57 55 55 55 55 54 53 52 52 53 53 53 54 54 55 56 57 58 59 59 60 60 60 61 63 64 66 69 72 76
54 54 56 56 55 55 55 54 53 54 55 57 59 57 56 55 55 54 53 52 52 53 54 55 56 56 57 58 60 61 61 61 60 59 60 61 64 66 69 73 76 78
57 57 58 57 58 58 57 55 54 55 56 58 59 58 57 56 55 55 54 54 54 54 56 57 57 58 59 61 62 63 63 62 61 60 60 61 64 67 70 73 75 77
60 60 60 60 60 59 58 57 56 57 58 59 60 59 58 58 57 56 56 56 56 57 58 59 60 61 62 63 63 63 63 63 63 63 64 65 66 68 69 71 73 74
62 62 62 62 61 61 60 59 59 58 59 60 61 60 60 59 58 57 57 57 58 59 60 61 62 64 65 65 63 62 63 64 66 67 68 68 68 68 69 70 71 73
65 64 64 64 63 63 63 62 61 60 60 60 60 61 61 60 59 59 59 59 60 61 62 63 64 66 67 66 64 64 65 66 67 68 68 68 67 67 69 70 72 75
66 65 65 66 65 65 65 64 63 62 62 61 61 61 61 61 60 60 61 62 62 62 63 65 66 67 68 67 65 65 66 67 68 69 68 68 67 68 70 72 74 77
67 67 68 68 68 67 66 66 65 65 64 63 63 63 63 62 62 62 63 64 64 64 66 67 68 68 68 68 67 67 68 68 69 69 69 69 69 70 72 72 73 76
69 70 70 71 70 69 68 68 67 67 67 66 65 64 64 64 64 65 65 66 66 67 68 69 69 69 69 70 70 70 71 71 72 72 71 70 71 73 73 73 74 76
71 72 73 74 73 72 70 70 70 69 69 68 67 66 66 66 66 67 67 68 69 70 70 71 71 70 71 72 73 73 74 75 76 75 74 74 75 75 75 76 79 80
73 73 75 76 76 74 73 72 72 71 70 70 69 68 67 68 68 68 68 70 71 72 72 73 72 72 73 74 75 76 76 76 75 75 76 77 77 77 78 80 82 82
75 75 76 77 77 76 74 74 73 73 72 71 70 69 68 69 70 70 70 72 73 74 74 74 74 74 74 76 77 77 75 75 76 76 77 76 76 78 81 83 83 84
77 77 78 78 77 76 75 75 74 73 72 71 69 68 69 70 71 71 72 73 75 76 75 75 75 75 75 77 78 77 76 77 77 74 74 75 76 80 84 84 85 87

ECMWFNIL_250_spd_024.txt.gz
Wind_Speed
26 25 25 25 26 27 28 29 30 31 32 33 33 34 35 35 36 37 38 39 41 41 41 41 41 40 38 37 37 36 33 33 34 35 37 38 38 39 40 42 44 45
27 27 26 26 27 28 29 30 31 32 33 34 35 35 36 37 38 38 38 40 42 42 42 42 43 43 41 38 37 35 34 35 37 38 39 40 41 41 42 45 47 47
29 28 28 28 29 30 31 31 32 33 34 35 36 37 37 38 39 39 40 42 43 43 44 44 44 44 41 39 38 37 37 39 40 40 41 43 44 45 46 48 49 49
30 30 30 31 31 31 32 33 34 35 36 37 38 39 40 40 40 41 42 44 45 45 45 45 46 46 43 41 42 41 41 42 42 42 42 44 46 49 50 51 51 52
32 32 33 33 33 33 34 34 36 37 37 38 39 40 42 42 42 43 44 45 46 47 46 47 48 47 45 44 44 42 42 43 43 44 44 46 49 51 53 54 54 54
34 34 35 35 35 35 35 36 37 38 39 40 41 42 43 44 44 46 46 47 48 48 48 48 48 48 48 46 44 43 43 45 46 47 48 49 51 53 55 56 57 57
36 36 37 37 37 37 38 39 39 39 40 41 43 44 45 46 46 47 49 48 49 49 49 49 49 49 49 47 46 45 45 46 48 49 50 52 53 55 56 58 59 58
38 38 39 39 40 39 40 41 41 41 42 43 44 45 47 48 48 49 50 50 51 51 50 50 50 50 50 49 48 47 47 48 50 51 53 54 55 57 59 60 60 59
40 41 42 42 42 42 43 43 43 43 44 45 46 47 49 50 50 50 51 52 53 53 52 52 51 51 51 51 50 49 49 50 51 53 54 56 58 59 61 61 60 58
43 43 44 45 45 45 45 45 45 45 46 47 48 50 51 52 52 52 53 53 54 54 54 53 53 52 52 52 51 51 51 51 52 54 56 57 59 61 62 61 58 56
45 45 46 47 47 47 47 47 47 47 47 48 49 51 53 54 54 54 54 54 54 55 56 55 54 53 53 52 52 51 52 52 53 55 56 58 60 61 61 59 57 56
47 48 49 49 50 49 49 49 49 49 50 50 50 52 54 57 57 56 55 55 56 56 57 57 55 54 54 53 52 52 52 53 54 55 56 58 59 60 60 59 58 57
49 50 51 52 51 51 50 51 51 52 52 53 53 53 54 57 59 59 58 58 58 58 59 59 57 56 55 54 52 52 53 54 56 57 58 59 60 60 60 60 60 60
51 52 53 53 53 52 52 53 53 53 54 55 56 55 55 57 59 61 61 61 61 60 60 61 60 58 57 56 54 54 55 56 57 59 60 61 61 61 62 62 62 62
54 55 55 55 54 53 54 55 55 55 55 57 58 58 57 57 59 61 62 63 63 63 62 62 62 61 59 58 56 55 56 57 59 61 62 62 63 64 64 64 65 65
56 57 57 56 56 55 56 57 58 57 57 58 59 61 60 60 60 61 63 64 65 64 63 63 64 63 61 59 57 57 58 59 60 62 64 65 65 66 67 67 67 67
58 59 58 58 57 56 57 59 60 60 60 60 60 61 62 62 62 62 64 65 66 65 64 64 64 64 63 61 59 59 60 60 62 63 65 66 67 68 69 70 70 70
60 60 60 60 58 58 59 61 62 62 63 63 62 62 63 63 63 64 64 65 66 66 66 65 64 65 64 62 61 61 62 62 63 65 66 68 69 70 71 72 72 72
62 62 62 61 60 60 60 62 63 64 65 66 65 64 64 64 64 65 65 65 66 67 66 65 64 65 64 64 63 63 63 64 65 67 68 70 71 72 73 73 72 73
63 64 64 63 62 62 63 63 65 66 67 68 67 67 66 66 65 66 66 66 66 66 66 65 64 65 65 65 65 65 66 66 67 69 70 71 72 74 74 74 74 74
64 65 65 65 65 65 65 66 67 69 70 70 70 70 69 69 68 67 67 66 66 66 66 65 64 65 67 67 67 68 68 68 69 70 71 72 74 75 76 76 76 76
65 67 67 67 67 67 67 68 69 71 72 73 73 72 72 72 70 69 68 67 67 66 66 66 66 66 67 68 69 69 70 70 70 70 71 73 75 76 77 77 76 76
67 68 69 70 70 70 70 71 71 73 75 75 75 75 75 75 74 72 70 69 67 66 65 67 67 66 67 69 70 71 71 70 70 71 72 74 75 77 78 77 74 74
68 69 70 71 72 72 73 73 74 76 77 77 78 78 78 78 77 75 73 70 67 66 67 68 68 68 69 70 71 73 73 72 73 73 73 73 75 77 77 74 71 73
70 70 71 72 73 74 75 76 77 78 79 79 79 79 79 79 78 76 73 71 69 68 69 70 70 70 71 72 73 74 74 75 74 74 74 74 75 75 73 69 67 71
72 72 73 73 74 76 77 78 79 80 80 81 80 80 79 78 77 75 73 72 71 71 72 73 73 73 73 74 74 75 75 75 74 75 76 75 74 71 65 62 64 68

ECMWFNIL_250_spd_027.txt.gz
Wind_Speed
23 23 22 21 22 23 24 24 25 25 25 26 27 28 29 30 31 32 33 34 35 36 37 38 39 40 42 44 44 44 43 43 43 43 42 40 39 39 39 40 42 43
24 24 23 23 24 25 26 26 27 26 26 27 28 30 31 32 33 34 34 36 37 38 39 40 41 42 43 44 45 45 44 44 44 44 44 43 42 42 42 43 44 44
26 25 24 24 26 27 27 28 28 28 28 29 30 31 32 34 35 35 36 37 38 39 40 41 42 43 44 45 46 46 45 45 45 45 45 44 43 43 44 45 45 46
27 26 26 26 28 29 29 30 30 30 30 31 32 33 34 35 37 38 38 39 40 41 41 42 43 44 45 46 47 47 47 47 47 46 46 45 44 44 45 45 47 48
28 27 27 29 30 31 31 32 31 32 32 33 34 35 36 37 38 40 41 41 42 42 43 43 45 46 46 47 48 49 49 49 48 48 47 46 45 45 45 46 47 49
29 29 29 31 32 33 33 33 33 33 34 35 36 37 38 39 39 41 42 43 44 44 44 45 46 47 48 49 50 50 51 50 50 49 48 47 46 46 46 47 47 49
31 31 32 33 34 35 35 35 35 35 36 37 38 39 40 41 41 42 43 44 45 46 47 47 48 49 49 50 51 51 52 51 51 51 49 48 48 48 48 48 48 49
33 33 34 35 37 37 37 37 37 38 38 39 40 41 42 43 44 44 45 46 47 48 49 49 50 51 51 51 51 52 52 52 52 51 50 50 49 49 48 49 50 50
35 36 36 38 39 39 39 39 39 40 40 41 42 42 43 44 45 46 47 48 48 49 50 51 51 52 53 53 52 53 53 53 53 52 51 51 50 49 50 50 51 52
38 38 39 40 41 41 41 41 41 41 42 43 44 45 45 45 46 47 48 49 50 50 51 52 52 53 54 54 54 54 54 55 55 53 52 52 51 50 51 52 53 54
40 41 41 43 43 43 43 42 42 43 43 45 46 47 47 48 48 48 49 50 51 52 52 53 53 54 54 55 55 55 56 56 56 55 53 52 51 51 52 53 55 55
43 43 44 45 46 45 45 44 44 44 45 46 48 49 50 50 50 50 51 52 53 53 54 55 55 55 55 55 56 56 56 57 57 55 54 52 51 52 54 55 57 58
46 46 47 48 48 48 47 46 46 46 47 48 49 50 51 52 52 52 53 54 55 55 56 57 57 57 57 57 58 58 58 58 58 56 54 53 52 54 55 57 58 59
48 49 50 50 51 50 49 49 48 48 48 50 50 51 53 53 54 54 55 56 57 57 58 58 58 59 59 59 59 59 59 59 58 56 55 55 55 56 57 58 59 60
51 51 52 52 52 52 51 51 49 48 49 51 52 53 54 54 55 56 56 57 58 59 60 60 60 61 61 61 60 59 59 59 57 56 56 57 58 59 59 59 60 62
53 53 54 54 54 54 53 52 50 48 50 53 55 55 55 56 57 58 58 59 60 60 61 62 62 62 62 62 60 60 60 58 57 56 57 60 61 61 60 60 61 63
55 55 56 56 56 55 55 54 52 51 53 55 57 57 57 58 59 60 61 61 62 62 63 64 64 63 64 63 62 61 60 59 58 57 58 62 63 61 61 61 62 64
57 57 57 57 57 57 57 56 56 55 56 57 58 58 59 60 61 63 64 64 65 65 66 67 66 66 66 66 64 63 62 61 59 59 60 63 63 62 63 63 64 65
59 58 59 59 59 59 59 59 59 58 58 59 59 60 60 62 63 64 65 66 67 68 69 69 70 69 69 69 67 65 63 63 62 61 62 63 64 64 64 64 65 67
61 60 60 61 61 62 62 62 61 61 60 60 60 60 61 63 65 66 66 68 69 71 71 72 72 71 71 70 69 67 66 64 63 63 63 64 65 65 65 66 66 67
64 63 63 63 63 64 64 64 64 64 62 62 61 61 62 65 67 67 68 69 71 73 73 73 74 73 72 72 70 69 67 66 65 65 65 66 66 67 68 68 67 68
67 66 65 64 65 66 66 67 67 66 65 65 64 64 65 67 68 68 70 71 73 74 75 75 75 74 74 73 72 70 69 67 67 67 67 67 68 68 69 69 69 69
70 68 67 67 68 68 68 68 68 68 67 67 68 68 68 68 69 71 72 74 74 76 77 77 76 75 75 74 73 72 70 68 68 67 67 68 69 70 70 70 70 70
72 70 69 69 70 70 69 69 69 69 69 70 71 71 71 71 72 73 74 75 76 77 78 78 77 75 75 75 74 73 70 68 67 67 67 69 69 71 72 73 72 71
74 73 72 72 71 71 70 70 70 69 70 71 73 74 74 74 74 75 76 78 79 79 78 78 77 75 75 75 74 71 68 66 66 67 68 69 70 72 74 74 73 72
76 75 74 74 73 72 71 71 71 70 71 72 74 75 75 75 76 77 78 79 80 80 79 78 77 76 75 73 71 69 67 67 68 69 70 71 72 74 75 75 75 75

ECMWFNIL_250_spd_030.txt.gz
Wind_Speed
18 19 20 21 22 23 23 22 22 22 21 21 22 23 24 25 27 28 29 31 32 33 35 36 37 37 38 38 38 38 39 40 41 42 42 42 41 41 41 40 40 40
18 19 21 22 23 24 25 24 23 23 23 23 24 25 26 27 28 29 30 31 33 34 35 37 38 39 39 39 40 40 40 41 43 44 44 44 43 43 43 42 42 41
19 20 22 23 24 25 26 25 25 25 25 25 26 27 27 28 30 31 31 32 34 35 36 37 38 39 40 40 41 41 42 43 44 45 46 46 45 45 45 45 44 43
20 21 22 24 25 26 27 27 27 27 27 27 28 29 29 30 31 32 33 34 35 36 37 38 39 40 41 41 42 42 43 44 44 46 47 47 47 47 47 47 46 45
21 22 23 24 26 27 28 29 29 29 29 29 30 31 31 32 32 33 34 35 36 37 38 39 40 41 41 42 43 43 44 44 45 46 47 48 49 48 48 48 47 46
24 23 24 25 27 28 29 30 31 31 31 31 32 32 33 34 34 34 35 36 37 38 40 41 41 41 42 43 44 45 45 45 46 47 48 49 49 49 50 49 48 48
26 26 26 26 27 29 30 31 32 33 32 33 33 34 35 36 36 36 36 37 38 39 40 41 42 42 43 43 45 46 46 46 47 48 48 49 50 51 51 51 49 49
29 28 28 28 29 30 31 32 33 34 34 34 35 37 37 38 38 38 38 39 40 40 41 42 43 43 44 44 45 46 47 48 48 49 50 50 51 52 52 51 50 49
32 31 30 31 32 32 33 34 35 36 36 36 38 39 40 40 40 40 40 40 41 42 42 43 43 44 45 45 46 46 47 48 49 50 51 52 53 53 53 52 51 50
35 34 34 34 35 35 35 36 37 38 38 39 40 41 42 42 42 42 42 42 42 43 45 45 44 45 46 46 47 48 48 49 51 52 52 53 54 54 54 53 52 51
36 36 37 37 38 38 38 38 39 39 40 42 42 43 44 44 43 43 43 43 44 46 48 48 47 47 47 48 49 49 50 51 52 53 54 55 55 55 55 55 54 53
38 39 40 40 41 41 40 40 40 41 42 43 44 45 46 46 46 46 46 46 48 50 51 51 50 50 50 51 52 51 52 53 54 55 56 57 57 56 56 56 56 56
40 41 42 43 44 43 43 42 42 42 43 44 46 47 48 48 48 49 49 49 50 52 53 53 53 53 52 54 55 54 54 54 55 56 57 58 58 58 58 58 58 58
43 43 44 45 46 45 45 44 43 44 45 46 47 48 49 49 50 51 52 52 53 55 55 56 56 55 55 57 57 56 56 57 58 58 59 60 60 60 60 59 59 59
45 46 47 48 48 47 46 46 45 46 47 48 49 50 50 51 52 54 54 55 56 57 58 58 59 58 58 59 60 59 59 60 61 60 60 62 62 62 62 61 60 60
48 49 50 50 50 49 48 48 48 48 49 50 51 51 51 52 54 55 56 57 58 60 61 61 62 61 61 62 63 62 62 63 64 63 63 63 63 63 63 63 62 61
51 52 52 52 51 50 50 50 50 51 52 52 52 53 53 54 56 57 58 59 61 62 63 64 64 64 64 65 65 65 64 65 66 66 65 65 64 64 64 64 64 63
53 54 54 53 53 52 52 52 52 54 54 54 54 55 55 57 58 59 59 61 62 63 65 67 67 67 67 67 68 67 66 67 69 69 67 67 67 66 66 66 66 66
54 54 55 55 55 54 53 53 55 56 56 56 57 57 58 58 59 60 61 61 62 64 67 69 70 70 70 70 70 69 67 68 70 70 69 68 68 68 69 69 68 67
54 55 57 58 56 55 55 56 57 58 59 59 60 60 60 61 61 62 62 62 62 65 68 70 71 72 72 72 72 70 69 70 72 71 70 70 69 70 70 70 67 65
56 58 59 59 58 58 58 59 60 61 61 62 62 63 63 64 64 64 64 64 64 66 69 71 72 73 74 73 73 71 71 72 72 71 70 70 71 71 70 67 65 65
57 58 59 60 60 60 60 61 62 63 63 64 65 66 66 66 67 68 68 67 67 68 71 72 73 74 74 74 73 73 73 74 72 71 71 71 71 71 68 66 66 67
59 60 62 62 62 62 63 64 65 65 66 66 67 68 69 69 70 71 71 70 70 70 72 74 74 75 75 75 74 74 74 74 72 71 71 70 70 69 67 67 69 69
62 63 64 65 65 66 67 67 68 69 69 69 70 71 72 72 73 73 73 73 72 72 73 75 75 75 75 75 75 75 75 73 72 71 71 70 69 70 69 70 70 70
65 65 66 68 69 70 70 71 72 73 72 72 73 73 74 74 74 75 75 74 73 74 75 76 76 76 76 76 76 76 74 72 72 72 72 71 72 73 72 71 70 70
67 68 69 71 72 73 75 75 75 76 75 75 75 74 75 76 76 76 75 75 75 75 76 77 77 77 76 75 75 75 73 73 74 74 74 74 74 73 72 71 71 70

ECMWFNIL_250_spd_033.txt.gz
Wind_Speed
17 17 16 15 14 14 13 14 15 16 17 18 20 22 23 24 25 26 26 27 28 29 29 30 32 32 33 34 35 35 36 36 37 37 38 39 39 40 41 42 42 43
19 19 19 18 17 16 15 14 16 16 17 19 20 23 24 26 26 27 28 28 29 30 30 31 32 33 34 35 36 36 37 38 38 39 40 41 42 42 43 44 45 46
21 21 20 20 20 19 18 16 17 17 17 19 21 23 25 27 28 29 30 30 30 31 32 33 33 34 35 36 37 38 38 39 40 41 42 43 44 45 45 46 47 48
23 23 23 22 22 22 20 19 19 19 18 19 21 23 25 27 28 30 31 32 32 33 34 35 35 35 36 38 40 41 41 41 41 42 44 45 45 46 47 47 48 49
25 25 25 24 24 24 23 22 21 21 20 21 22 24 26 28 29 31 32 33 34 35 36 36 36 36 38 40 43 43 43 43 43 44 46 47 47 47 48 49 50 50
26 27 27 27 26 26 26 25 24 24 24 24 25 26 28 30 31 32 33 34 35 36 37 38 38 39 40 42 44 44 45 45 44 45 47 48 49 49 49 50 51 52
28 28 29 29 29 28 27 27 27 27 27 27 28 29 31 32 32 33 35 36 36 37 38 39 40 41 42 44 45 46 47 47 47 47 48 49 50 50 51 52 53 54
30 31 32 32 31 31 30 29 29 29 29 30 31 32 33 34 34 35 36 37 38 39 40 40 41 42 44 45 47 48 49 49 50 50 50 51 52 53 53 54 54 55
33 33 34 34 34 34 33 32 32 32 31 32 33 34 35 36 37 37 38 38 39 40 41 42 42 43 45 46 48 50 51 52 53 53 53 54 54 55 56 56 56 56
34 34 35 35 35 35 34 34 34 34 33 33 35 36 37 38 39 39 39 40 40 41 42 43 43 45 46 47 49 51 53 54 54 55 55 56 56 57 57 58 57 57
35 35 35 35 35 35 35 34 34 35 35 35 36 38 39 40 40 40 41 41 42 43 43 44 45 46 47 48 49 51 53 54 55 56 57 57 58 59 59 59 59 58
36 36 36 36 35 36 36 36 36 37 37 37 38 40 41 41 41 41 42 43 43 44 44 45 45 47 48 49 50 52 54 55 56 57 58 59 60 60 60 60 60 60
38 38 37 37 38 38 38 39 39 39 39 39 40 42 43 43 42 43 43 44 44 45 46 46 47 48 50 50 51 52 54 55 57 58 59 59 60 61 62 62 62 62
41 40 40 39 40 40 41 42 42 42 42 42 43 44 44 44 44 45 45 45 46 47 48 48 49 50 52 52 53 54 54 55 57 59 60 60 61 62 63 63 64 65
44 43 42 42 42 43 44 44 44 44 44 44 46 46 46 46 46 46 46 46 47 49 50 51 51 52 54 54 55 56 56 57 59 60 62 62 62 63 64 64 65 67
46 45 44 44 45 46 46 46 46 46 46 47 49 49 48 47 47 48 48 48 49 51 52 53 54 55 56 57 58 59 58 59 61 63 63 64 64 65 65 66 67 68
48 47 47 46 47 48 49 49 48 48 49 49 51 52 50 48 49 50 51 51 51 53 55 56 56 57 58 59 61 61 61 62 64 65 65 65 66 66 67 68 69 69
50 49 49 50 50 50 50 51 50 50 51 52 53 53 51 50 52 53 53 53 54 56 57 58 58 59 60 61 63 63 62 64 66 66 67 67 67 68 70 70 69 68
52 51 52 53 54 53 52 52 52 52 52 53 54 54 53 54 55 56 56 56 57 58 59 60 61 61 61 62 63 63 64 65 67 68 68 69 69 70 71 70 69 68
54 53 54 56 56 56 55 54 54 54 54 55 55 56 56 57 58 59 59 59 59 60 61 62 63 63 63 63 63 64 65 67 68 69 70 71 71 71 71 70 69 68
57 56 56 58 58 58 57 56 56 56 57 57 57 58 59 60 61 62 62 62 62 63 64 65 65 65 65 64 64 66 68 69 69 71 72 72 72 72 71 69 68 68
59 58 58 59 60 60 59 59 59 59 59 59 59 60 61 61 63 65 66 65 65 66 66 67 67 67 66 65 66 68 70 70 70 71 72 73 73 73 71 69 67 66
62 61 61 61 61 61 61 61 61 61 62 62 61 62 63 64 66 68 68 68 69 68 69 69 69 68 67 68 68 70 71 71 71 72 73 73 73 72 69 67 66 66
66 64 64 63 63 62 63 63 63 64 64 64 64 64 66 68 69 70 70 71 71 70 70 70 69 69 69 70 71 72 73 72 73 73 73 73 73 70 67 66 65 66
69 67 66 66 65 65 66 66 66 66 65 65 66 68 70 72 71 71 72 73 72 72 72 71 70 71 73 73 73 73 74 74 74 73 73 72 71 69 66 65 65 65
73 71 70 69 68 68 69 69 68 68 68 68 70 72 74 74 73 74 74 74 74 74 74 73 74 75 76 75 75 74 74 75 74 73 72 71 69 67 66 65 64 64

ECMWFNIL_250_spd_036.txt.gz
Wind_Speed
17 16 15 15 15 15 14 14 14 14 15 15 14 14 15 16 16 17 18 19 19 20 20 21 22 24 24 25 26 27 29 30 32 33 34 35 36 37 38 39 39 40
19 18 18 17 18 17 17 16 16 16 17 18 18 18 18 18 19 19 20 21 21 22 22 23 23 25 25 26 27 28 30 32 33 34 36 37 38 39 40 41 42 43
20 20 19 19 19 19 19 18 18 17 18 20 20 20 21 21 22 23 23 24 24 24 24 24 25 26 27 27 28 29 31 33 35 36 37 38 39 41 42 43 44 45
20 20 20 20 21 21 21 20 19 19 20 21 22 22 23 24 25 26 26 27 26 26 27 27 27 28 28 29 29 30 32 34 36 37 38 40 41 42 43 44 45 46
21 21 21 21 22 22 22 21 21 21 22 23 24 24 25 26 27 28 28 29 28 28 29 29 29 29 30 30 30 31 33 35 37 38 40 41 42 43 44 45 47 48
23 22 22 22 23 24 24 23 22 23 24 25 26 26 27 28 29 30 31 31 30 30 30 30 30 31 32 32 32 33 34 36 37 40 42 43 44 44 45 46 48 49
26 26 25 25 25 25 26 25 24 25 26 27 29 30 30 31 32 33 33 34 33 32 32 32 32 32 33 34 34 34 36 37 39 41 43 45 46 46 47 47 49 50
29 29 28 28 27 27 27 27 27 28 29 30 31 32 33 33 34 34 35 36 35 34 34 34 34 34 35 35 36 36 38 39 40 42 44 46 48 49 49 49 50 52
32 31 30 30 30 29 29 29 29 30 31 32 32 33 34 34 34 35 36 37 37 36 36 35 35 36 37 37 37 38 39 41 42 43 45 47 49 50 51 51 52 53
34 33 33 32 32 31 31 31 31 32 32 33 33 33 34 35 35 36 38 38 38 38 38 38 37 38 39 39 39 40 41 43 44 45 46 48 49 51 53 53 53 54
35 35 35 34 34 33 32 32 32 33 34 34 34 34 35 36 37 38 39 40 40 40 41 40 40 40 41 42 42 42 43 45 46 47 47 48 50 52 53 53 53 54
36 36 36 36 35 35 34 34 34 35 35 36 36 36 37 37 39 40 41 41 41 42 43 43 43 44 44 44 44 44 45 47 48 48 49 50 51 53 54 54 54 55
38 38 37 37 37 37 36 36 37 37 38 38 38 38 39 40 41 42 42 42 43 45 45 45 46 47 47 47 47 47 48 50 50 51 51 52 53 54 55 55 55 57
39 39 39 39 39 39 39 39 39 39 40 41 41 42 42 42 42 43 44 44 45 46 46 47 49 50 49 49 50 50 50 52 53 53 54 55 55 56 56 57 57 59
40 41 41 41 42 42 42 41 42 42 42 43 44 45 45 44 44 45 46 47 47 48 48 49 51 51 50 51 53 53 53 54 55 56 57 57 57 57 58 59 60 61
43 44 44 45 45 45 45 44 44 45 45 46 47 47 47 47 47 47 48 49 49 49 50 51 52 52 52 53 55 55 54 55 57 58 59 60 59 59 60 60 61 63
46 47 48 48 48 48 48 48 48 48 49 49 50 50 50 49 49 50 51 51 51 51 52 53 53 53 54 55 57 56 55 56 59 61 62 62 62 61 62 62 63 65
50 51 51 52 52 52 51 51 51 51 52 52 52 52 51 51 51 52 53 54 53 53 54 55 55 55 56 57 57 57 56 58 61 63 64 65 64 63 64 64 64 67
53 53 54 55 55 55 55 54 54 54 55 55 54 54 53 53 54 54 56 56 56 55 56 57 56 57 58 58 58 58 58 60 63 66 67 66 65 65 66 66 67 69
57 57 58 58 59 58 58 57 57 58 58 58 57 57 56 57 56 56 57 58 58 58 58 58 58 59 60 60 60 59 60 62 65 68 68 68 67 68 68 68 70 71
62 61 62 62 62 62 61 60 61 61 61 61 60 60 60 59 58 58 59 60 60 60 60 60 61 62 62 61 61 62 62 64 67 69 70 70 69 69 69 71 73 74
66 66 66 66 65 64 63 63 64 64 64 63 63 62 62 61 60 60 61 62 61 61 61 62 63 64 63 63 64 64 64 65 68 71 72 71 70 71 72 74 75 74
70 70 69 68 67 65 65 65 66 66 66 65 65 64 63 62 62 62 63 63 63 62 63 65 66 65 66 66 66 67 67 68 70 72 72 72 72 72 73 75 74 70
74 73 72 71 70 68 67 68 68 68 68 67 66 65 65 65 65 64 64 64 65 65 66 68 68 68 69 69 69 69 69 70 72 73 72 72 73 73 73 73 69 63
78 76 75 74 74 72 71 71 70 70 70 69 68 67 68 68 67 67 67 67 67 68 69 71 71 72 72 72 71 70 70 71 72 73 73 73 74 72 70 68 62 55
81 79 78 78 77 76 74 74 74 74 73 72 71 71 71 71 70 70 70 71 71 72 73 74 74 75 75 73 72 70 70 72 74 74 74 74 72 69 66 62 55 50

ECMWFNIL_250_spd_042.txt.gz
Wind_Speed
20 18 18 17 16 15 14 14 13 13 12 11 11 11 10 9 9 9 10 11 12 14 15 16 17 18 18 18 18 19 20 20 21 23 25 27 29 30 30 31 32 33
22 21 21 20 18 17 17 17 16 16 15 14 14 14 13 12 12 11 12 13 15 16 18 18 19 19 20 19 19 20 20 21 22 23 25 27 30 31 32 33 34 35
24 23 22 21 20 20 19 19 19 18 17 17 16 16 16 16 15 15 15 15 16 18 19 20 20 20 21 21 21 21 21 22 23 24 26 27 30 32 33 34 34 36
25 24 24 23 23 22 22 22 21 20 20 19 19 19 19 18 18 18 18 18 19 19 21 21 22 22 22 22 22 23 23 24 25 26 27 28 30 32 34 35 35 36
26 26 25 25 24 24 25 24 23 22 22 21 21 22 21 21 21 21 21 21 22 22 22 23 23 23 23 24 24 25 25 26 26 27 28 29 31 33 35 35 36 36
27 27 27 26 26 26 27 26 24 23 22 22 22 23 24 24 24 24 24 25 25 25 25 25 25 25 25 26 26 27 27 28 29 29 30 30 32 33 35 36 37 37
28 28 27 27 27 27 27 25 24 23 22 22 23 24 26 26 27 27 28 28 28 28 27 27 27 27 27 27 28 29 29 30 31 31 32 32 33 34 35 37 38 39
28 28 28 28 27 27 26 25 24 24 24 25 25 26 28 29 29 30 30 31 31 30 29 28 28 29 28 29 30 30 31 32 33 34 34 34 34 35 37 38 39 40
29 29 28 28 28 27 27 26 26 26 27 28 28 29 30 31 31 31 32 32 32 32 31 30 30 30 31 31 31 32 33 33 35 36 36 36 36 37 38 39 41 42
31 31 30 30 30 29 29 29 29 29 30 31 31 31 32 32 32 33 33 33 33 32 32 31 31 32 33 33 33 34 34 35 36 38 39 39 39 39 40 41 42 43
35 34 33 33 32 32 32 32 32 32 32 33 33 33 34 34 34 34 34 34 33 33 33 32 32 33 35 35 35 35 37 37 38 39 40 41 41 42 42 43 44 45
38 37 36 35 35 35 35 35 35 34 34 35 35 36 36 35 36 36 35 35 35 35 35 34 33 35 37 37 37 37 39 40 40 41 42 43 44 44 45 45 46 46
41 39 38 37 37 38 38 38 37 37 37 37 37 38 38 38 38 37 37 37 36 36 36 36 35 37 39 40 40 40 41 42 42 43 44 45 46 47 47 47 48 48
43 41 40 39 40 40 40 40 40 39 39 39 39 40 40 40 40 39 39 38 38 38 38 38 38 39 41 42 42 42 43 44 45 45 46 47 48 49 50 49 49 50
43 42 42 41 41 42 42 42 41 41 41 40 40 40 41 41 41 40 40 40 40 40 40 40 41 42 43 44 44 45 45 46 47 48 48 49 50 51 52 52 51 51
43 43 43 42 42 42 42 43 43 43 43 42 42 42 42 42 42 42 42 42 42 42 42 43 44 45 45 46 46 47 47 48 49 50 51 51 52 53 54 54 53 53
44 44 44 44 43 43 43 43 44 44 44 44 44 44 44 44 44 44 44 44 44 44 45 46 47 47 48 48 49 49 50 50 51 52 53 54 54 55 56 56 56 55
46 46 46 46 45 45 45 45 45 46 46 46 47 46 46 46 47 47 48 47 47 47 47 48 49 50 51 51 51 51 52 52 53 54 55 55 56 57 57 58 58 58
49 49 49 49 49 48 47 47 47 48 49 49 49 49 49 50 50 50 51 50 50 50 50 51 52 53 54 53 53 53 53 54 55 56 56 58 59 59 59 60 61 61
52 52 52 52 52 51 51 51 51 52 52 52 52 52 52 52 53 53 53 53 53 53 53 53 54 56 56 56 55 55 55 56 57 58 59 60 61 61 62 63 63 64
54 54 55 55 54 54 54 54 54 54 55 55 55 54 55 55 55 55 56 56 55 55 55 55 56 58 59 59 58 58 58 59 60 61 62 63 64 64 65 65 66 67
57 57 57 58 58 57 57 58 58 58 58 58 57 57 58 58 59 59 59 58 58 58 58 59 60 60 61 62 62 62 62 63 63 64 66 67 67 67 68 69 69 69
57 57 58 59 59 59 60 62 62 62 61 61 61 61 61 62 62 63 62 62 62 62 62 63 63 63 64 65 66 66 66 66 66 67 68 68 69 69 70 70 71 71
52 52 53 54 55 56 59 60 61 61 61 61 61 62 63 64 64 64 64 64 64 64 65 65 65 66 66 67 68 68 68 68 67 68 68 69 69 70 70 71 71 70
46 46 47 48 49 51 53 54 54 55 55 55 56 57 58 59 60 60 61 61 61 62 62 62 62 63 64 65 65 66 65 64 64 65 66 66 67 68 69 69 68 67
42 42 43 45 46 47 48 48 49 50 51 51 51 52 52 53 54 54 55 55 56 56 56 56 56 57 58 60 61 60 60 60 59 59 60 61 62 63 63 63 62 61

ECMWFNIL_250_spd_045.txt.gz
Wind_Speed
16 15 15 14 13 12 11 10 10 10 10 9 9 9 9 9 9 7 7 8 9 10 11 12 13 15 16 16 17 18 19 20 21 23 24 25 26 27 27 27 28 28
19 18 18 18 16 15 14 14 13 13 12 12 12 12 12 12 12 11 10 11 11 12 13 14 15 16 18 18 19 19 20 21 21 23 24 26 27 28 28 28 29 29
22 21 21 20 19 18 17 17 16 15 15 15 15 16 16 15 15 15 14 14 14 14 15 16 16 17 19 20 20 20 21 21 22 23 24 26 27 28 29 30 30 30
24 23 22 22 21 20 20 19 18 17 17 17 18 18 19 18 18 18 17 17 17 17 18 18 19 19 21 22 22 22 22 22 23 24 25 25 27 28 30 30 31 31
25 24 23 22 22 22 22 21 20 19 19 19 20 20 20 19 19 19 19 18 19 19 19 20 21 22 22 23 24 23 23 23 24 25 25 26 27 28 30 30 31 32
25 24 23 23 23 24 24 23 22 21 21 21 21 21 20 19 19 20 20 21 21 21 21 22 23 24 24 24 25 25 24 25 25 26 27 28 28 29 31 31 32 32
25 24 24 25 25 26 25 24 23 22 22 22 22 22 21 20 21 21 22 23 24 23 23 23 24 25 25 26 26 26 26 26 27 28 29 30 31 31 32 33 33 33
25 25 26 26 26 26 26 25 24 24 23 23 24 23 23 23 23 23 24 25 26 26 25 25 25 26 27 27 27 27 28 28 28 30 31 32 33 34 34 35 35 35
28 28 27 27 27 26 26 25 25 25 25 26 26 26 26 26 25 26 26 27 28 28 27 27 27 27 28 29 29 29 30 30 30 31 33 34 35 36 37 37 37 38
31 31 29 28 28 27 26 26 26 27 27 28 28 28 28 28 28 28 29 29 29 29 29 29 29 30 30 30 30 31 31 32 32 33 34 36 37 38 39 39 39 40
34 34 32 31 30 28 28 28 28 29 30 30 30 31 31 31 31 31 31 31 31 31 31 31 31 32 33 33 32 32 32 33 34 35 36 38 39 40 41 41 42 42
37 37 36 34 32 31 31 31 32 32 32 32 33 34 34 34 34 33 34 34 33 33 34 34 34 35 35 35 34 34 34 34 35 37 38 39 41 42 43 44 44 44
39 39 37 35 33 33 34 34 34 34 34 34 35 36 37 37 36 36 36 36 36 36 36 36 36 37 37 36 35 35 35 36 37 39 40 42 43 44 45 47 47 47
39 38 36 35 35 36 36 36 36 36 36 37 37 38 39 39 39 39 39 39 38 38 38 38 38 38 38 37 37 37 38 38 39 41 43 44 45 46 48 49 50 50
38 37 36 35 36 37 38 37 38 38 39 39 39 40 40 41 41 41 40 40 40 39 39 39 39 39 39 39 39 39 40 41 42 43 45 46 47 48 50 51 52 52
38 38 37 37 38 39 39 39 40 40 40 41 41 41 41 41 41 41 41 40 40 40 40 40 41 41 41 41 42 42 44 45 45 46 47 49 50 50 52 53 53 54
39 39 38 38 40 41 41 41 41 42 42 42 42 42 42 41 42 42 42 41 41 41 42 42 43 44 44 45 45 45 47 48 49 49 50 51 52 52 53 54 55 56
41 40 39 40 41 42 42 42 42 43 43 43 43 43 43 43 43 43 43 43 44 44 45 45 46 47 48 48 48 49 50 50 51 52 52 53 54 55 56 56 57 58
42 41 41 42 42 43 43 43 43 44 44 44 44 44 44 45 46 46 46 46 47 48 48 49 50 51 51 52 52 52 52 53 54 54 55 56 57 57 58 59 60 61
43 42 43 44 44 44 44 45 45 45 46 46 46 47 48 48 49 49 49 50 50 51 51 52 52 54 55 55 55 55 55 56 56 57 58 59 59 59 60 61 62 63
46 45 46 46 46 47 47 48 48 48 49 49 49 50 51 51 52 52 52 53 53 53 54 55 56 57 58 59 59 59 59 59 59 59 60 60 60 60 61 61 62 62
49 48 48 49 49 50 51 51 51 52 52 52 52 53 54 54 54 55 55 56 56 57 58 59 59 59 60 61 61 61 60 59 59 58 58 58 58 57 57 57 57 58
52 52 52 52 53 53 54 54 54 55 55 55 55 56 56 57 57 57 57 58 58 59 58 58 58 58 58 58 59 58 57 55 53 53 52 51 51 51 52 53 53 53
52 52 53 53 53 54 54 54 54 54 54 53 54 54 54 55 55 55 55 55 55 54 54 53 52 52 52 53 53 53 52 50 48 47 47 47 47 48 49 49 50 51
48 49 49 48 48 49 49 49 49 48 48 48 48 49 48 49 49 50 50 50 49 49 48 48 48 48 48 49 49 49 49 48 47 46 45 46 46 46 46 47 48 49
43 43 43 42 42 43 43 43 44 44 44 44 44 44 44 45 45 46 47 47 47 46 46 46 47 46 46 47 48 48 48 48 46 45 46 46 45 45 45 45 46 47

ECMWFNIL_250_spd_048.txt.gz
Wind_Speed
16 15 13 12 12 11 10 9 9 8 7 6 5 4 4 5 5 5 5 6 8 9 10 11 11 13 13 15 16 18 19 20 20 20 20 21 22 22 23 24 25 26
18 16 15 14 14 13 12 11 10 9 8 8 7 7 7 7 8 8 9 9 10 11 11 12 12 13 15 16 17 18 20 21 21 21 21 21 22 22 23 25 26 27
20 18 18 17 16 15 14 14 12 11 11 11 11 11 10 10 10 11 12 12 12 13 13 13 13 14 15 17 18 19 20 21 22 22 22 22 22 23 24 25 26 27
22 21 20 19 18 18 17 16 15 14 14 14 15 14 14 13 13 14 14 13 13 13 13 13 14 15 16 17 19 19 20 22 23 23 23 23 23 24 24 25 26 28
26 25 24 22 21 20 19 18 17 18 18 18 18 17 16 16 16 16 16 15 14 14 14 14 15 16 17 18 19 21 22 23 24 24 25 25 25 25 25 26 27 28
27 27 26 24 23 22 21 20 20 21 20 20 20 19 19 19 18 18 17 16 16 15 15 15 16 17 18 19 21 22 23 24 25 25 26 26 26 26 26 27 28 29
27 27 27 26 25 24 23 23 22 22 21 21 21 21 21 21 20 19 18 17 17 17 17 17 18 19 20 21 22 23 24 25 26 27 28 28 28 28 28 29 29 30
27 27 27 27 27 26 25 25 24 22 22 23 23 23 24 23 21 20 19 18 19 20 20 20 20 21 22 23 23 24 26 27 28 28 29 29 29 30 31 31 31 32
27 27 28 28 28 27 27 26 24 24 24 25 26 26 25 24 23 22 21 21 21 22 22 23 23 23 24 25 25 26 27 29 29 30 30 31 31 32 33 34 34 35
30 29 28 28 28 28 27 26 26 26 26 27 28 27 26 25 25 24 24 24 24 24 24 25 25 26 27 28 28 28 29 30 31 32 32 32 33 34 35 37 37 38
33 31 30 30 29 28 27 27 27 28 29 29 29 28 28 27 27 26 26 26 26 26 27 27 28 29 30 31 31 30 30 31 33 33 33 34 34 36 37 39 40 41
35 34 33 31 30 29 28 28 29 30 30 30 29 29 30 29 29 28 28 28 28 28 30 31 31 32 32 32 32 32 31 32 34 35 35 36 36 38 39 41 43 44
37 36 35 33 32 31 30 30 31 31 31 31 30 31 31 31 31 30 30 31 31 31 32 33 34 34 34 33 33 33 33 34 35 36 37 38 39 41 42 44 46 47
39 38 36 35 34 33 33 33 33 33 33 32 32 32 32 33 33 33 33 33 34 34 34 35 36 35 35 35 34 35 36 37 37 38 40 41 42 44 45 47 48 49
40 39 38 36 35 35 34 34 33 34 34 34 34 34 34 34 34 35 35 36 36 37 37 37 38 37 37 37 37 37 38 39 40 41 42 44 45 47 48 49 50 51
41 39 38 36 36 35 34 34 34 34 35 35 35 35 35 35 36 37 38 38 38 39 39 39 40 39 39 39 40 40 41 43 44 45 46 47 49 50 50 52 53 54
41 39 38 37 36 37 36 35 35 35 36 37 37 37 37 37 38 38 39 39 39 40 40 41 41 41 42 42 43 43 44 46 47 48 49 50 52 53 53 54 56 57
40 39 39 38 38 39 38 37 37 38 38 39 39 38 38 38 39 39 39 40 41 41 42 42 43 44 45 45 46 47 47 48 50 51 52 53 54 56 57 58 59 59
40 40 40 40 40 40 39 38 38 38 38 38 38 37 37 38 39 39 40 41 42 43 44 45 46 47 48 48 48 49 50 51 52 54 56 57 57 58 59 59 60 59
41 41 41 40 40 40 40 39 38 37 37 37 37 37 37 39 40 41 42 43 44 45 46 48 49 50 50 51 51 52 53 54 55 56 58 58 58 57 56 56 55 54
42 41 40 40 40 40 40 39 38 38 38 38 38 39 40 42 43 43 44 45 47 48 49 50 51 52 53 54 55 56 56 56 56 56 55 55 53 52 51 50 49 48
41 40 39 39 40 40 40 40 40 40 40 41 42 42 43 44 45 46 47 48 50 51 52 53 54 55 56 57 57 57 55 54 52 50 49 49 48 47 47 47 46 46
41 41 41 41 42 42 42 42 43 43 43 44 45 46 47 47 48 50 51 52 53 54 54 55 56 56 56 55 54 53 50 48 46 45 44 44 44 45 45 45 46 46
43 43 43 44 44 44 44 45 45 46 47 48 49 50 50 51 52 53 53 54 54 54 54 53 52 52 51 49 48 47 45 44 42 41 41 41 41 41 42 43 44 46
45 45 46 47 47 47 47 48 49 50 50 51 51 52 52 52 52 52 52 51 50 49 48 47 46 45 44 44 44 43 42 41 40 39 39 39 39 39 40 41 42 43
47 48 49 49 49 49 49 49 49 50 50 50 49 49 48 48 47 47 46 44 43 42 42 41 41 41 41 41 41 40 40 39 39 40 40 39 39 40 41 42 43 42